Location: Veytaux
(46.4185°N, 6.9320°E)
Time: 08:11:16
(UTC+00:00)

DEBRIS - Pass Details

Date: 05 October 2022
Orbit: 309 x 15045 km, 49.5° (Epoch: 04 December)

Event Time Altitude Azimuth Distance (km) Brightness Sun altitude
Rises 01:01:34 0° 139° (SE) 12,271 9.5 -42.9°
Reaches altitude 10° 01:14:31 10° 128° (SE) 13,460 9.8 -41.5°
Maximum altitude 02:35:55 32° 83° (E) 17,345 10.7 -30.8°
Drops below altitude 10° 03:49:03 10° 50° (NE) 14,486 10.9 -19.1°
Sets 04:00:47 0° 45° (NE) 13,743 10.9 -17.1°
